SCP
0 0 0 0 0 0 0 0 0 0 0 0 0 0 0 0 0 0 0 0 0 0 0 0 0 0 0 0 0 0 0 0 -0 -0 -0 -0 -0 -0 -0 -0 -0 -0 -0 -0 -0 -0 -0 -0 -0
0 0 0 0 0 0 0 0 0 0 0 0 0 0 0 0 0 0 0 0 0 0 0 0 0 0 0 0 0 0 0 -0 -0 -0 -0 -0 -0 -0 -0 -0 -0 -0 -0 -0 -0 -0 -0 -0 -0
0 0 0 0 0 0 0 0 0 0 0 0 0 0 0 0 0 0 0 0 0 0 0 0 0 0 0 0 0 0 0 -0 -0 -0 -0 -0 -0 -0 -0 -0 -0 -0 -0 -0 -0 -0 -0 -0 0
0 0 0 0 0 0 0 0 0 0 0 0 0 0 0 0 0 0 0 0 0 0 0 0 0 0 0 0 0 0 0 -0 -0 -0 -0 -0 -0 -0 -0 -0 -0 -0 -0 -0 -0 0 0 0 0
0 0 0 0 0 0 0 0 0 0 0 0 0 0 0 0 0 0 0 0 0 0 0 0 0 0 0 0 0 0 0 -0 -0 -0 -0 -0 -0 -0 -0 -0 -0 -0 -0 0 0 0 0 0 0
0 0 0 0 0 0 -0 0 0 0 0 0 0 0 0 0 0 0 0 0 0 0 0 0 0 0 0 0 0 0 0 0 0 -0 -0 -0 -0 -0 -0 -0 -0 0 0 0 0 0 0 0 0
0 0 0 0 0 0 0 0 0 0 0 0 0 0 0 0 0 0 0 0 0 0 0 0 0 0 0 0 0 0 0 0 0 0 -0 -0 0 0 0 0 0 0 0 0 0 0 0 0 0
0 0 0 0 0 -0 0 0 0 0 0 0 0 0 0 0 0 0 0 0 0 0 0 0 0 0 0 0 0 0 0 0 0 0 0 0 0 0 0 0 0 0 0 0 0 0 0 0 0
0 0 0 0 0 0 0 0 0 0 0 0 0 0 0 0 0 0 0 0 0 0 0 0 0 0 0 0 0 0 0 0 0 0 0 0 0 0 0 0 0 0 0 0 0 0 0 0 0
0 0 0 0 0 -0 0 0 0 0 0 0 0 0 0 0 0 0 0 0 0 0 0 0 0 0 0 0 0 0 0 0 0 0 0 0 0 0 0 0 0 0 0 0 0 0 0 0 0
0 0 0 0 0 0 0 0 0 0 0 0 0 0 0 0 0 0 0 0 0 0 0 0 0 0 0 0 0 0 0 0 0 0 0 0 0 0 0 0 0 0 0 0 0 0 0 0 0
0 0 0 0 0 0 0 0 0 0 0 0 0 0 0 0 0 0 0 0 0 0 0 0 0 0 0 0 0 0 0 0 0 0 0 0 0 0 0 0 0 0 0 0 0 0 0 0 0
0 0 0 0 0 0 0 0 0 0 0 0 0 0 0 0 0 0 0 0 0 0 0 0 0 0 0 0 0 0 0 0 0 0 0 0 0 0 0 0 0 0 0 0 0 0 0 0 0
0 0 0 0 0 0 0 0 0 0 0 0 0 0 0 0 0 0 0 0 0 0 0 0 0 0 0 0 0 0 0 0 0 0 0 0 0 0 0 0 0 0 0 0 0 0 0 0 0
0 0 0 0 0 0 0 0 0 0 0 0 0 0 0 0 0 0 0 0 0 0 0 0 0 0 0 0 0 0 0 0 0 0 0 0 0 0 0 0 0 0 0 0 0 0 0 0 0
0 0 0 0 0 0 0 0 0 0 0 0 0 0 0 0 0 -0 -0 0 0 0 0 0 0 0 0 0 0 0 0 0 0 0 0 0 0 0 0 0 0 0 0 0 0 0 0 0 0
0 0 0 0 0 0 0 0 0 0 0 0 0 0 0 0 0 -0 -0 0 0 0 0 0 0 0 0 0 0 0 0 0 0 0 0 0 0 0 0 0 0 0 0 0 0 0 0 0 0
0 0 0 0 0 0 0 0 0 0 0 0 0 0 0 0 0 0 -0 0 0 0 0 0 0 0 0 0 0 0 0 0 0 0 0 0 0 0 0 0 0 0 0 0 0 0 0 0 0
0 0 0 0 0 0 0 0 0 0 0 0 0 0 0 0 0 0 0 0 0 0 0 0 0 0 0 0 0 0 0 0 0 0 0 0 0 0 0 0 0 0 0 0 0 0 0 0 0
-0 0 0 0 0 0 0 0 0 0 0 0 0 0 0 0 0 0 0 0 0 0 0 0 0 0 0 0 0 0 0 0 0 0 0 0 0 0 0 0 0 0 0 0 0 0 0 0 0
0 0 0 0 0 0 0 0 0 0 0 0 0 0 0 0 0 0 0 0 0 0 0 0 0 0 0 0 0 0 0 0 0 0 0 0 0 0 0 0 0 0 0 0 0 0 0 0 0
0 0 0 0 0 0 0 0 0 0 0 0 0 0 0 0 0 0 0 0 0 0 0 0 0 0 0 0 0 0 0 0 0 0 0 0 0 0 0 0 0 0 0 0 0 0 0 0 0
0 0 0 0 0 0 0 0 0 0 0 0 0 0 0 0 0 0 0 0 0 0 0 0 0 0 0 0 0 0 0 0 0 0 0 0 0 0 0 0 0 0 0 0 0 0 0 0 0
-0 0 0 0 0 0 0 0 0 0 0 0 0 0 0 0 0 0 0 0 0 0 0 0 0 0 0 0 0 0 0 0 0 0 0 0 0 0 0 0 0 0 0 0 0 0 0 0 0
-0 0 0 0 0 0 0 0 0 0 0 0 0 0 0 0 0 0 0 0 0 0 0 0 0 0 0 0 0 0 0 0 0 0 0 0 0 0 0 0 0 0 0 0 0 0 0 0 0
-0 0 0 0 0 0 0 0 0 0 0 0 0 0 0 0 0 0 0 0 0 0 0 0 0 0 0 0 0 0 0 0 0 0 0 0 0 0 0 0 0 0 0 0 0 0 0 0 0
0 0 0 0 0 0 0 0 0 0 0 0 0 0 -0 -0 0 0 0 0 0 0 0 0 0 0 0 0 0 0 0 0 0 0 0 0 0 0 0 0 0 0 0 0 0 0 0 0 0
0 0 0 0 0 0 0 0 0 0 0 0 0 0 0 0 0 0 0 0 0 0 0 0 0 0 0 0 0 0 0 0 0 0 0 0 0 0 0 0 0 0 0 0 0 0 0 0 0
0 0 0 0 0 0 0 0 0 0 0 0 0 0 0 0 0 0 0 0 0 0 0 0 0 0 0 0 0 0 0 0 0 0 0 0 0 0 0 0 0 0 0 0 0 0 0 0 0
0 0 0 0 0 0 0 0 0 0 0 0 0 0 0 0 0 0 0 0 0 0 0 0 0 0 0 0 0 0 0 0 0 0 0 0 0 0 0 0 0 0 0 0 0 0 0 0 0
Wind_Speed_500mb
23 5 5 2 5 6 8 14 5 13 5 6 15 19 20 15 5 7 37 34 35 45 46 45 41 40 43 41 37 33 29 22 14 9 7 10 13 16 18 18 18 19 21 21 20 22 24 24 22
17 6 3 6 5 3 10 12 21 17 16 27 19 14 9 5 15 39 51 31 33 48 50 49 43 46 43 41 38 31 25 18 12 9 10 14 18 19 19 18 18 19 19 20 19 18 18 18 18
12 9 5 6 8 12 9 9 8 3 32 24 10 14 10 8 31 60 34 43 37 52 53 51 46 46 44 38 33 29 23 16 12 12 12 13 16 20 19 18 16 17 17 16 15 15 14 13 13
5 8 10 3 18 16 15 16 24 21 21 23 27 15 16 9 55 36 45 46 44 53 53 54 48 40 41 37 31 26 19 15 14 12 12 12 14 17 13 14 15 14 13 12 11 11 11 10 10
15 10 4 8 20 18 11 28 26 9 16 25 21 11 12 27 24 37 55 45 46 54 52 52 46 41 38 33 29 22 18 15 14 12 10 10 13 17 16 15 12 10 8 7 7 7 7 8 10
11 11 5 15 20 26 6 30 28 22 26 22 25 21 9 21 30 57 51 45 42 53 52 50 45 41 38 33 27 21 17 15 13 13 11 10 10 9 8 9 8 5 3 3 4 6 8 11 12
11 5 10 14 20 14 7 15 19 23 28 19 27 10 28 29 31 65 51 41 39 46 51 53 48 42 36 31 26 22 18 15 14 13 13 11 9 7 5 2 2 1 1 3 5 7 10 12 14
22 6 9 12 22 15 22 23 15 18 13 45 19 15 15 43 59 57 48 41 43 41 45 54 50 46 41 33 26 22 18 15 15 15 14 14 11 8 6 5 4 5 5 6 8 10 11 12 14
19 8 21 16 16 9 16 11 8 13 32 20 16 20 22 55 68 58 54 49 47 41 41 53 51 47 40 32 27 25 20 15 16 16 15 13 11 11 6 6 6 6 7 9 11 12 12 14 15
19 15 18 10 16 3 31 22 29 15 32 15 33 30 47 61 73 67 65 62 55 45 39 47 45 43 39 35 30 26 22 18 14 16 14 13 12 14 11 7 7 8 10 11 11 13 14 14 14
14 25 20 4 11 17 29 11 27 30 5 37 47 49 58 70 72 69 64 60 57 44 44 42 46 44 43 40 37 32 28 23 19 18 16 15 16 15 10 12 15 13 12 11 13 12 13 14 16
8 23 13 8 14 12 3 14 11 27 12 39 36 42 56 75 74 72 69 62 57 51 48 43 43 40 38 28 33 32 31 29 22 21 18 19 18 16 18 22 18 15 13 13 13 13 14 15 18
8 9 24 5 27 21 19 7 11 23 11 45 51 47 53 71 71 66 61 60 54 50 55 49 43 44 43 44 36 32 22 24 19 17 19 18 19 20 22 20 18 17 16 16 15 14 15 17 21
15 9 14 10 22 26 8 4 11 14 28 53 59 56 50 53 61 73 59 56 53 47 50 48 45 46 46 43 37 28 25 23 21 22 24 23 23 23 22 21 22 20 19 19 19 18 19 22 25
10 9 3 10 4 13 5 10 10 23 40 52 57 51 44 45 51 72 68 63 52 46 41 40 37 42 49 46 42 35 27 26 28 28 27 27 27 26 26 27 26 23 22 22 22 20 24 25 25
3 11 10 14 18 13 11 10 17 19 43 48 45 42 39 40 47 60 66 52 53 45 45 39 37 38 40 42 42 42 36 34 34 32 30 32 32 30 31 32 31 28 27 27 26 25 28 24 26
8 5 10 19 14 16 2 10 12 32 40 39 41 46 38 36 34 44 68 55 53 50 48 43 40 39 38 37 38 38 39 38 36 36 35 31 31 29 30 31 30 29 29 30 29 29 27 28 29
8 5 7 11 5 3 22 12 12 7 24 25 33 49 44 41 39 32 63 58 49 47 47 44 43 40 39 38 39 38 38 38 38 36 35 32 31 31 31 30 29 31 33 34 33 34 31 31 32
16 16 7 6 11 11 14 13 13 9 6 8 7 48 45 41 32 26 31 51 47 41 40 40 44 43 42 46 47 44 43 38 36 35 32 32 31 32 34 33 32 32 35 35 37 37 33 33 33
32 25 13 13 7 9 3 18 9 5 7 13 12 18 35 36 41 36 34 41 45 42 35 35 33 34 37 38 39 39 38 42 40 38 38 37 36 37 38 39 36 35 35 36 37 38 37 39 38
28 16 6 2 8 4 6 4 11 7 10 11 16 19 14 19 41 41 43 44 43 44 44 42 38 35 33 33 32 32 35 37 34 32 32 32 31 31 36 39 40 39 38 36 41 41 41 42 36
16 6 9 12 9 4 4 1 11 12 12 18 29 31 22 21 21 31 27 31 37 39 44 46 47 45 42 42 43 42 42 41 38 35 33 30 31 32 35 38 40 39 42 42 43 42 42 41 32
10 10 9 9 6 2 9 11 13 11 15 13 21 31 26 15 9 17 23 25 29 33 35 42 45 47 49 50 52 51 50 48 43 35 29 28 29 29 28 27 30 34 38 43 42 41 38 37 28
19 8 9 8 5 4 16 5 4 5 1 3 11 23 22 18 8 5 14 20 26 29 35 35 35 39 43 47 49 50 48 45 42 40 37 39 41 41 41 40 42 40 36 37 36 35 33 26 27
4 4 5 7 5 3 10 5 2 8 11 8 10 17 13 14 10 5 7 20 31 33 33 34 33 31 30 31 31 31 31 32 34 36 36 36 35 33 33 30 34 36 30 30 32 30 28 28 24
8 6 7 7 5 6 8 10 8 5 23 26 26 21 15 11 9 8 6 3 6 14 20 25 28 28 27 26 26 27 28 29 27 25 22 21 21 22 20 19 21 20 22 24 24 23 23 21 19
7 3 4 10 3 5 4 11 13 6 11 24 36 33 22 14 12 11 9 8 6 3 5 10 15 17 18 19 19 17 16 14 13 11 10 10 11 13 13 13 14 15 14 14 15 17 19 19 22
2 8 7 5 6 1 3 6 9 2 10 9 18 31 29 21 14 11 9 7 6 5 4 5 9 12 13 14 15 14 12 10 8 7 6 6 5 5 7 8 10 11 12 14 13 15 17 23 26
5 4 8 7 5 5 5 1 7 10 8 12 16 26 27 26 19 15 12 10 7 4 5 5 9 10 13 13 11 10 9 8 6 4 3 3 3 5 6 7 9 10 12 14 15 17 20 21 22
3 2 5 7 4 1 3 4 10 10 13 23 25 31 31 26 26 26 21 15 11 9 9 10 12 13 13 13 14 12 10 7 5 2 1 4 4 5 6 6 9 10 10 11 11 11 12 12 13
Wind_Direction_500mb
313 332 72 78 57 73 248 254 210 274 169 105 88 78 113 41 88 174 148 167 173 165 166 160 154 152 147 150 153 153 156 153 158 151 130 126 126 119 113 112 111 104 96 95 90 82 79 78 79
302 301 317 267 119 205 270 240 264 216 156 114 99 77 79 77 105 139 162 180 175 168 163 159 153 151 150 154 158 162 165 173 170 138 124 133 125 117 113 110 106 98 92 91 89 84 81 78 77
293 196 263 171 196 212 236 278 23 139 138 133 104 67 78 103 140 153 176 172 178 168 161 159 154 157 158 159 162 166 166 165 158 140 138 142 139 131 115 113 106 100 94 89 86 81 75 67 59
255 198 240 209 245 247 219 258 174 148 114 123 130 76 90 109 149 162 174 178 169 167 162 160 157 157 161 163 162 163 160 159 153 146 146 132 122 125 117 120 111 102 95 89 80 69 58 47 40
237 238 208 234 253 261 224 225 156 135 140 157 144 122 85 155 165 168 171 181 170 167 164 165 163 160 162 166 168 167 161 162 159 156 149 138 121 132 122 111 109 104 80 72 58 44 31 18 8
252 214 182 228 252 259 255 203 158 155 156 184 116 109 119 163 162 166 176 177 177 166 165 168 168 165 167 172 175 174 172 170 170 163 157 161 150 142 136 126 122 120 97 63 24 3 358 358 1
193 132 212 234 251 277 285 181 163 186 168 172 151 91 142 171 166 161 171 179 174 168 168 171 170 171 173 174 183 182 183 182 187 180 166 169 174 174 175 151 111 57 323 328 336 341 346 349 350
238 153 224 225 248 269 207 251 209 180 175 156 134 149 169 173 159 164 169 178 176 176 180 177 176 179 181 182 185 187 189 189 189 189 184 182 187 192 204 225 255 280 296 321 333 337 338 341 342
234 191 219 220 233 250 225 171 140 146 126 120 121 146 182 162 159 166 166 174 180 188 191 184 183 185 188 191 193 194 194 193 198 195 191 185 186 193 193 212 235 269 305 323 331 329 328 332 332
205 201 213 197 242 247 246 191 163 143 124 93 112 125 157 162 164 169 172 175 184 187 180 183 189 192 195 198 199 201 201 199 194 195 195 193 204 211 209 208 250 277 292 301 306 309 318 327 330
204 220 219 195 306 278 214 209 178 143 188 168 162 152 163 167 170 173 177 182 186 188 182 189 197 191 200 202 199 202 208 208 207 205 209 212 215 235 242 269 272 279 282 288 295 304 311 320 322
192 221 177 49 333 312 298 199 196 166 193 193 202 188 170 172 174 180 180 184 188 191 190 196 202 192 190 196 205 209 216 208 208 211 211 219 223 240 250 261 266 267 271 286 294 302 315 319 323
198 215 206 199 5 305 308 152 208 188 156 188 184 179 176 179 179 182 187 190 195 196 198 203 208 202 193 197 209 210 213 212 213 227 236 241 246 246 251 259 265 274 289 294 296 303 303 309 312
311 204 222 240 320 294 321 296 211 172 144 163 176 178 179 185 184 181 186 196 200 202 205 211 210 207 207 209 214 222 222 216 224 237 242 246 250 253 256 259 263 270 279 284 286 289 299 305 302
14 130 91 221 245 301 232 280 200 136 152 158 172 175 181 189 187 182 182 196 203 207 205 208 209 205 208 217 225 228 226 230 237 243 248 253 257 259 259 260 261 267 270 271 274 285 289 291 299
15 158 169 185 46 295 100 269 258 212 172 161 171 178 183 189 197 186 180 192 206 210 212 208 214 212 208 211 221 226 228 232 242 249 253 256 258 259 259 261 262 265 265 266 272 278 280 282 289
344 193 192 148 159 341 220 257 313 206 173 169 175 182 186 188 195 192 184 188 204 209 211 213 216 219 219 216 216 221 231 241 247 251 254 255 259 262 261 260 261 261 261 263 269 274 282 286 290
98 49 97 93 155 236 294 269 325 120 179 177 188 179 181 193 198 184 191 190 202 211 216 218 222 224 224 227 229 231 235 239 242 246 250 255 260 262 266 267 265 262 263 266 269 273 274 280 281
93 88 64 116 105 209 278 287 266 276 195 152 147 182 180 187 195 192 185 196 201 208 213 216 221 228 230 228 228 231 235 242 247 253 256 259 264 265 268 270 268 262 262 267 270 263 268 271 273
87 73 22 336 13 201 236 286 286 200 248 200 129 150 182 177 183 187 192 197 201 207 210 216 226 229 230 233 236 239 242 240 249 251 256 256 258 258 261 268 268 267 265 260 259 265 264 263 272
70 66 37 189 230 263 128 277 283 253 228 193 117 92 105 164 175 178 186 192 203 193 198 207 216 232 241 245 246 242 244 248 247 252 252 254 252 258 258 258 261 264 260 260 264 265 265 270 268
69 306 347 19 63 193 132 334 11 341 46 32 37 63 72 96 135 176 193 222 211 212 217 215 217 217 220 230 236 234 232 246 253 261 257 251 255 260 261 259 259 258 259 263 262 262 267 267 261
131 237 30 22 78 341 27 96 332 342 35 28 33 44 46 58 111 158 187 203 218 225 236 235 235 234 233 235 238 243 245 246 248 245 245 242 245 253 254 258 254 254 258 259 261 262 264 265 262
159 167 98 43 70 83 313 43 309 293 99 68 34 33 22 11 24 245 219 216 228 233 232 238 236 233 232 234 238 239 242 247 252 255 252 251 254 256 256 255 257 258 259 259 261 261 260 256 258
297 125 57 32 48 153 200 75 301 18 27 31 14 26 5 357 4 360 262 243 239 242 244 246 245 236 231 230 230 233 236 241 247 254 259 260 259 258 259 256 254 257 253 249 251 252 250 251 252
212 166 135 142 160 182 168 170 90 81 48 59 62 59 60 41 22 17 10 340 259 246 240 235 236 234 235 235 237 240 245 249 252 252 251 252 252 253 254 254 260 257 254 251 248 248 254 261 252
218 121 152 110 29 77 222 112 66 60 72 46 47 48 50 39 21 4 358 357 351 300 217 216 222 225 223 225 224 218 216 214 217 223 230 234 240 243 247 248 251 255 251 243 239 247 258 259 257
157 165 75 5 95 87 303 61 125 169 72 51 46 42 31 30 23 2 351 353 334 304 271 200 193 188 188 183 189 185 188 194 207 218 226 235 243 246 245 247 250 260 264 262 260 265 269 267 269
33 1 58 105 97 135 127 295 190 148 113 71 55 44 32 25 16 357 334 321 305 279 237 206 199 193 191 187 183 183 184 188 192 200 227 257 269 272 274 276 272 268 268 269 262 262 265 266 266
278 70 151 121 217 97 100 193 197 147 84 45 31 22 15 14 7 360 347 325 305 280 249 219 205 203 196 186 180 174 174 169 166 179 300 299 306 299 288 290 284 282 276 273 266 261 254 254 253
Wind_Speed_850mb
23 5 5 2 5 6 8 14 5 13 5 6 15 19 20 15 5 7 37 34 35 45 46 45 41 40 43 41 37 33 29 22 14 9 7 10 13 16 18 18 18 19 21 21 20 22 24 24 22
17 6 3 6 5 3 10 12 21 17 16 27 19 14 9 5 15 39 51 31 33 48 50 49 43 46 43 41 38 31 25 18 12 9 10 14 18 19 19 18 18 19 19 20 19 18 18 18 18
12 9 5 6 8 12 9 9 8 3 32 24 10 14 10 8 31 60 34 43 37 52 53 51 46 46 44 38 33 29 23 16 12 12 12 13 16 20 19 18 16 17 17 16 15 15 14 13 13
5 8 10 3 18 16 15 16 24 21 21 23 27 15 16 9 55 36 45 46 44 53 53 54 48 40 41 37 31 26 19 15 14 12 12 12 14 17 13 14 15 14 13 12 11 11 11 10 10
15 10 4 8 20 18 11 28 26 9 16 25 21 11 12 27 24 37 55 45 46 54 52 52 46 41 38 33 29 22 18 15 14 12 10 10 13 17 16 15 12 10 8 7 7 7 7 8 10
11 11 5 15 20 26 6 30 28 22 26 22 25 21 9 21 30 57 51 45 42 53 52 50 45 41 38 33 27 21 17 15 13 13 11 10 10 9 8 9 8 5 3 3 4 6 8 11 12
11 5 10 14 20 14 7 15 19 23 28 19 27 10 28 29 31 65 51 41 39 46 51 53 48 42 36 31 26 22 18 15 14 13 13 11 9 7 5 2 2 1 1 3 5 7 10 12 14
22 6 9 12 22 15 22 23 15 18 13 45 19 15 15 43 59 57 48 41 43 41 45 54 50 46 41 33 26 22 18 15 15 15 14 14 11 8 6 5 4 5 5 6 8 10 11 12 14
19 8 21 16 16 9 16 11 8 13 32 20 16 20 22 55 68 58 54 49 47 41 41 53 51 47 40 32 27 25 20 15 16 16 15 13 11 11 6 6 6 6 7 9 11 12 12 14 15
19 15 18 10 16 3 31 22 29 15 32 15 33 30 47 61 73 67 65 62 55 45 39 47 45 43 39 35 30 26 22 18 14 16 14 13 12 14 11 7 7 8 10 11 11 13 14 14 14
14 25 20 4 11 17 29 11 27 30 5 37 47 49 58 70 72 69 64 60 57 44 44 42 46 44 43 40 37 32 28 23 19 18 16 15 16 15 10 12 15 13 12 11 13 12 13 14 16
8 23 13 8 14 12 3 14 11 27 12 39 36 42 56 75 74 72 69 62 57 51 48 43 43 40 38 28 33 32 31 29 22 21 18 19 18 16 18 22 18 15 13 13 13 13 14 15 18
8 9 24 5 27 21 19 7 11 23 11 45 51 47 53 71 71 66 61 60 54 50 55 49 43 44 43 44 36 32 22 24 19 17 19 18 19 20 22 20 18 17 16 16 15 14 15 17 21
15 9 14 10 22 26 8 4 11 14 28 53 59 56 50 53 61 73 59 56 53 47 50 48 45 46 46 43 37 28 25 23 21 22 24 23 23 23 22 21 22 20 19 19 19 18 19 22 25
10 9 3 10 4 13 5 10 10 23 40 52 57 51 44 45 51 72 68 63 52 46 41 40 37 42 49 46 42 35 27 26 28 28 27 27 27 26 26 27 26 23 22 22 22 20 24 25 25
3 11 10 14 18 13 11 10 17 19 43 48 45 42 39 40 47 60 66 52 53 45 45 39 37 38 40 42 42 42 36 34 34 32 30 32 32 30 31 32 31 28 27 27 26 25 28 24 26
8 5 10 19 14 16 2 10 12 32 40 39 41 46 38 36 34 44 68 55 53 50 48 43 40 39 38 37 38 38 39 38 36 36 35 31 31 29 30 31 30 29 29 30 29 29 27 28 29
8 5 7 11 5 3 22 12 12 7 24 25 33 49 44 41 39 32 63 58 49 47 47 44 43 40 39 38 39 38 38 38 38 36 35 32 31 31 31 30 29 31 33 34 33 34 31 31 32
16 16 7 6 11 11 14 13 13 9 6 8 7 48 45 41 32 26 31 51 47 41 40 40 44 43 42 46 47 44 43 38 36 35 32 32 31 32 34 33 32 32 35 35 37 37 33 33 33
32 25 13 13 7 9 3 18 9 5 7 13 12 18 35 36 41 36 34 41 45 42 35 35 33 34 37 38 39 39 38 42 40 38 38 37 36 37 38 39 36 35 35 36 37 38 37 39 38
28 16 6 2 8 4 6 4 11 7 10 11 16 19 14 19 41 41 43 44 43 44 44 42 38 35 33 33 32 32 35 37 34 32 32 32 31 31 36 39 40 39 38 36 41 41 41 42 36
16 6 9 12 9 4 4 1 11 12 12 18 29 31 22 21 21 31 27 31 37 39 44 46 47 45 42 42 43 42 42 41 38 35 33 30 31 32 35 38 40 39 42 42 43 42 42 41 32
10 10 9 9 6 2 9 11 13 11 15 13 21 31 26 15 9 17 23 25 29 33 35 42 45 47 49 50 52 51 50 48 43 35 29 28 29 29 28 27 30 34 38 43 42 41 38 37 28
19 8 9 8 5 4 16 5 4 5 1 3 11 23 22 18 8 5 14 20 26 29 35 35 35 39 43 47 49 50 48 45 42 40 37 39 41 41 41 40 42 40 36 37 36 35 33 26 27
4 4 5 7 5 3 10 5 2 8 11 8 10 17 13 14 10 5 7 20 31 33 33 34 33 31 30 31 31 31 31 32 34 36 36 36 35 33 33 30 34 36 30 30 32 30 28 28 24
8 6 7 7 5 6 8 10 8 5 23 26 26 21 15 11 9 8 6 3 6 14 20 25 28 28 27 26 26 27 28 29 27 25 22 21 21 22 20 19 21 20 22 24 24 23 23 21 19
7 3 4 10 3 5 4 11 13 6 11 24 36 33 22 14 12 11 9 8 6 3 5 10 15 17 18 19 19 17 16 14 13 11 10 10 11 13 13 13 14 15 14 14 15 17 19 19 22
2 8 7 5 6 1 3 6 9 2 10 9 18 31 29 21 14 11 9 7 6 5 4 5 9 12 13 14 15 14 12 10 8 7 6 6 5 5 7 8 10 11 12 14 13 15 17 23 26
5 4 8 7 5 5 5 1 7 10 8 12 16 26 27 26 19 15 12 10 7 4 5 5 9 10 13 13 11 10 9 8 6 4 3 3 3 5 6 7 9 10 12 14 15 17 20 21 22
3 2 5 7 4 1 3 4 10 10 13 23 25 31 31 26 26 26 21 15 11 9 9 10 12 13 13 13 14 12 10 7 5 2 1 4 4 5 6 6 9 10 10 11 11 11 12 12 13
Wind_Direction_850mb
313 332 72 78 57 73 248 254 210 274 169 105 88 78 113 41 88 174 148 167 173 165 166 160 154 152 147 150 153 153 156 153 158 151 130 126 126 119 113 112 111 104 96 95 90 82 79 78 79
302 301 317 267 119 205 270 240 264 216 156 114 99 77 79 77 105 139 162 180 175 168 163 159 153 151 150 154 158 162 165 173 170 138 124 133 125 117 113 110 106 98 92 91 89 84 81 78 77
293 196 263 171 196 212 236 278 23 139 138 133 104 67 78 103 140 153 176 172 178 168 161 159 154 157 158 159 162 166 166 165 158 140 138 142 139 131 115 113 106 100 94 89 86 81 75 67 59
255 198 240 209 245 247 219 258 174 148 114 123 130 76 90 109 149 162 174 178 169 167 162 160 157 157 161 163 162 163 160 159 153 146 146 132 122 125 117 120 111 102 95 89 80 69 58 47 40
237 238 208 234 253 261 224 225 156 135 140 157 144 122 85 155 165 168 171 181 170 167 164 165 163 160 162 166 168 167 161 162 159 156 149 138 121 132 122 111 109 104 80 72 58 44 31 18 8
252 214 182 228 252 259 255 203 158 155 156 184 116 109 119 163 162 166 176 177 177 166 165 168 168 165 167 172 175 174 172 170 170 163 157 161 150 142 136 126 122 120 97 63 24 3 358 358 1
193 132 212 234 251 277 285 181 163 186 168 172 151 91 142 171 166 161 171 179 174 168 168 171 170 171 173 174 183 182 183 182 187 180 166 169 174 174 175 151 111 57 323 328 336 341 346 349 350
238 153 224 225 248 269 207 251 209 180 175 156 134 149 169 173 159 164 169 178 176 176 180 177 176 179 181 182 185 187 189 189 189 189 184 182 187 192 204 225 255 280 296 321 333 337 338 341 342
234 191 219 220 233 250 225 171 140 146 126 120 121 146 182 162 159 166 166 174 180 188 191 184 183 185 188 191 193 194 194 193 198 195 191 185 186 193 193 212 235 269 305 323 331 329 328 332 332
205 201 213 197 242 247 246 191 163 143 124 93 112 125 157 162 164 169 172 175 184 187 180 183 189 192 195 198 199 201 201 199 194 195 195 193 204 211 209 208 250 277 292 301 306 309 318 327 330
204 220 219 195 306 278 214 209 178 143 188 168 162 152 163 167 170 173 177 182 186 188 182 189 197 191 200 202 199 202 208 208 207 205 209 212 215 235 242 269 272 279 282 288 295 304 311 320 322
192 221 177 49 333 312 298 199 196 166 193 193 202 188 170 172 174 180 180 184 188 191 190 196 202 192 190 196 205 209 216 208 208 211 211 219 223 240 250 261 266 267 271 286 294 302 315 319 323
198 215 206 199 5 305 308 152 208 188 156 188 184 179 176 179 179 182 187 190 195 196 198 203 208 202 193 197 209 210 213 212 213 227 236 241 246 246 251 259 265 274 289 294 296 303 303 309 312
311 204 222 240 320 294 321 296 211 172 144 163 176 178 179 185 184 181 186 196 200 202 205 211 210 207 207 209 214 222 222 216 224 237 242 246 250 253 256 259 263 270 279 284 286 289 299 305 302
14 130 91 221 245 301 232 280 200 136 152 158 172 175 181 189 187 182 182 196 203 207 205 208 209 205 208 217 225 228 226 230 237 243 248 253 257 259 259 260 261 267 270 271 274 285 289 291 299
15 158 169 185 46 295 100 269 258 212 172 161 171 178 183 189 197 186 180 192 206 210 212 208 214 212 208 211 221 226 228 232 242 249 253 256 258 259 259 261 262 265 265 266 272 278 280 282 289
344 193 192 148 159 341 220 257 313 206 173 169 175 182 186 188 195 192 184 188 204 209 211 213 216 219 219 216 216 221 231 241 247 251 254 255 259 262 261 260 261 261 261 263 269 274 282 286 290
98 49 97 93 155 236 294 269 325 120 179 177 188 179 181 193 198 184 191 190 202 211 216 218 222 224 224 227 229 231 235 239 242 246 250 255 260 262 266 267 265 262 263 266 269 273 274 280 281
93 88 64 116 105 209 278 287 266 276 195 152 147 182 180 187 195 192 185 196 201 208 213 216 221 228 230 228 228 231 235 242 247 253 256 259 264 265 268 270 268 262 262 267 270 263 268 271 273
87 73 22 336 13 201 236 286 286 200 248 200 129 150 182 177 183 187 192 197 201 207 210 216 226 229 230 233 236 239 242 240 249 251 256 256 258 258 261 268 268 267 265 260 259 265 264 263 272
70 66 37 189 230 263 128 277 283 253 228 193 117 92 105 164 175 178 186 192 203 193 198 207 216 232 241 245 246 242 244 248 247 252 252 254 252 258 258 258 261 264 260 260 264 265 265 270 268
69 306 347 19 63 193 132 334 11 341 46 32 37 63 72 96 135 176 193 222 211 212 217 215 217 217 220 230 236 234 232 246 253 261 257 251 255 260 261 259 259 258 259 263 262 262 267 267 261
131 237 30 22 78 341 27 96 332 342 35 28 33 44 46 58 111 158 187 203 218 225 236 235 235 234 233 235 238 243 245 246 248 245 245 242 245 253 254 258 254 254 258 259 261 262 264 265 262
159 167 98 43 70 83 313 43 309 293 99 68 34 33 22 11 24 245 219 216 228 233 232 238 236 233 232 234 238 239 242 247 252 255 252 251 254 256 256 255 257 258 259 259 261 261 260 256 258
297 125 57 32 48 153 200 75 301 18 27 31 14 26 5 357 4 360 262 243 239 242 244 246 245 236 231 230 230 233 236 241 247 254 259 260 259 258 259 256 254 257 253 249 251 252 250 251 252
212 166 135 142 160 182 168 170 90 81 48 59 62 59 60 41 22 17 10 340 259 246 240 235 236 234 235 235 237 240 245 249 252 252 251 252 252 253 254 254 260 257 254 251 248 248 254 261 252
218 121 152 110 29 77 222 112 66 60 72 46 47 48 50 39 21 4 358 357 351 300 217 216 222 225 223 225 224 218 216 214 217 223 230 234 240 243 247 248 251 255 251 243 239 247 258 259 257
157 165 75 5 95 87 303 61 125 169 72 51 46 42 31 30 23 2 351 353 334 304 271 200 193 188 188 183 189 185 188 194 207 218 226 235 243 246 245 247 250 260 264 262 260 265 269 267 269
33 1 58 105 97 135 127 295 190 148 113 71 55 44 32 25 16 357 334 321 305 279 237 206 199 193 191 187 183 183 184 188 192 200 227 257 269 272 274 276 272 268 268 269 262 262 265 266 266
278 70 151 121 217 97 100 193 197 147 84 45 31 22 15 14 7 360 347 325 305 280 249 219 205 203 196 186 180 174 174 169 166 179 300 299 306 299 288 290 284 282 276 273 266 261 254 254 253